Stations météo

réclame
Mon MeteoGroup
Angermünde, Allemagne (10291): Température de l'air & dewpoint: 15.07.2019 19:00:00 - 21.07.2019 19:00:00 (CEST)Angermünde, Allemagne (10291): Température de l'air 5cm & Température de l'air -5cm: 15.07.2019 19:00:00 - 21.07.2019 19:00:00 (CEST)Angermünde, Allemagne (10291): Température de l'air -20cm & Température de l'air -100cm: 15.07.2019 19:00:00 - 21.07.2019 19:00:00 (CEST)Angermünde, Allemagne (10291): Vitesse du vent & gusts: 15.07.2019 19:00:00 - 21.07.2019 19:00:00 (CEST)Angermünde, Allemagne (10291): Direction du vent: 15.07.2019 19:00:00 - 21.07.2019 19:00:00 (CEST)Angermünde, Allemagne (10291): reduced air pressure: 15.07.2019 19:00:00 - 21.07.2019 19:00:00 (CEST)Angermünde, Allemagne (10291): visibility: 15.07.2019 19:00:00 - 21.07.2019 19:00:00 (CEST)Angermünde, Allemagne (10291): Ensoleillement: 15.07.2019 19:00:00 - 21.07.2019 19:00:00 (CEST)Angermünde, Allemagne (10291): Quantités de précipitations: 15.07.2019 19:00:00 - 21.07.2019 19:00:00 (CEST)
Date & Time tt [°C] td [°C] tt 5cm [°C] tt -5cm [°C] tt -20cm [°C] tt -100cm [°C] ff [km/h] ff [knt] fx [km/h] fx [knt] dd ppp [hPa] vv [km] sd [min] rr [mm]
21.07.2019 19:00:00 25,7 9,8 26,3 24,8 23,1 19,0 20 11 36 20 W 1018,4 42 57 0,0
21.07.2019 18:00:00 26,2 10,9 27,4 25,3 23,0 18,9 23 12 37 20 WNW 1018,2 53 48 0,0
21.07.2019 17:00:00 26,6 12,7 28,8 24,6 22,9 18,9 19 11 32 18 W 1018,0 43 30 0,0
21.07.2019 16:00:00 26,1 13,5 28,2 24,6 22,8 18,9 21 11 34 19 W 1017,8 48 31 0,0
21.07.2019 15:00:00 24,9 13,0 26,1 25,0 22,6 18,9 20 11 34 18 W 1017,6 50 38 0,0
21.07.2019 14:00:00 25,9 13,7 28,7 24,6 22,3 18,9 23 12 36 20 W 1017,4 35 34 0,0
21.07.2019 13:00:00 24,4 14,6 28,2 25,2 21,9 18,9 20 11 33 18 WSW 1017,2 27 43 0,0
21.07.2019 12:00:00 22,5 15,0 24,5 23,9 21,6 18,8 15 8 26 14 WSW 1017,0 30 34 0,0
21.07.2019 11:00:00 21,0 15,7 23,5 22,3 21,4 18,8 14 8 26 14 W 1016,8 20 15 0,0
21.07.2019 10:00:00 19,1 16,2 20,3 21,1 21,3 18,8 13 7 30 16 W 1016,1 19 0 0,0
21.07.2019 09:00:00 18,0 15,9 18,8 20,4 21,3 18,8 14 7 27 14 W 1015,4 22 0 0,0
21.07.2019 08:00:00 17,7 16,0 18,2 20,0 21,4 18,7 13 7 21 12 W 1014,9 23 1 0,0
21.07.2019 07:00:00 17,4 16,0 17,2 19,4 21,6 18,7 11 6 22 12 WSW 1014,2 20 0 0,0
21.07.2019 06:00:00 17,0 15,8 16,7 19,1 21,9 18,7 11 6 24 13 SW 1014,0 14 0 0,0
21.07.2019 05:00:00 16,6 15,9 16,4 19,5 22,3 18,7 9 5 21 11 SW 1014,0 15 0 0,0
21.07.2019 04:00:00 17,0 16,4 17,0 19,9 22,6 18,7 9 5 16 8 S 1013,3 9 0 0,0
21.07.2019 03:00:00 16,9 16,1 16,7 20,3 23,1 18,7 2 1 6 3 S 1013,1 10 0 0,0
21.07.2019 02:00:00 17,1 16,3 17,0 20,8 23,6 18,7 5 3 10 6 ENE 1013,1 16 0 2,6
21.07.2019 01:00:00 17,4 16,5 17,2 21,5 24,1 18,6 2 1 33 18 WSW 1014,5 4,6 0 5,2
21.07.2019 00:00:00 19,3 14,3 17,5 23,4 24,5 18,6 29 16 46 25 WNW 1014,3 14 0 0,0
20.07.2019 23:00:00 23,2 11,7 22,8 24,2 24,9 18,6 25 13 44 24 NNW 1012,6 39 0 0,0
20.07.2019 22:00:00 23,5 14,4 21,8 25,0 25,3 18,6 13 7 16 9 ESE 1011,6 22 0 0,0
20.07.2019 21:00:00 25,3 13,7 22,7 26,7 25,6 18,6 8 4 17 9 ESE 1012,2 31 15 0,0
20.07.2019 20:00:00 27,9 11,9 27,6 28,5 25,7 18,6 10 6 23 13 SE 1011,9 33 48 0,0
20.07.2019 19:00:00 28,1 11,2 28,4 29,5 25,8 18,6 16 9 30 16 SSE 1012,1 28 15 0,0
20.07.2019 18:00:00 28,7 12,0 30,9 30,8 25,6 18,6 19 10 29 16 SSE 1012,2 21 38 0,0
20.07.2019 17:00:00 28,9 12,0 32,2 32,0 25,2 18,6 18 10 29 16 SSE 1012,8 18 60 0,0
20.07.2019 16:00:00 28,7 12,5 32,4 32,2 24,7 18,6 10 5 32 17 S 1013,4 27 54 0,0
20.07.2019 15:00:00 28,2 12,2 32,6 31,6 24,0 18,6 14 8 28 15 SE 1013,8 28 49 0,0
20.07.2019 14:00:00 27,5 12,4 31,9 30,9 23,3 18,5 12 6 28 15 SSE 1014,2 28 43 0,0
20.07.2019 13:00:00 26,9 11,9 31,1 30,4 22,4 18,5 12 6 21 11 S 1014,5 25 57 0,0
20.07.2019 12:00:00 25,5 11,7 28,9 29,1 21,5 18,5 8 4 19 10 S 1014,8 32 57 0,0
20.07.2019 11:00:00 24,5 12,5 28,2 26,5 20,7 18,5 11 6 19 10 ESE 1015,0 29 60 0,0
20.07.2019 10:00:00 23,8 14,0 26,8 23,7 20,2 18,5 8 5 15 8 ESE 1015,2 24 60 0,0
20.07.2019 09:00:00 21,5 14,9 23,8 21,1 19,9 18,5 6 3 10 5 SE 1015,4 22 60 0,0
20.07.2019 08:00:00 19,4 14,8 20,8 18,7 19,9 18,5 4 2 6 4 ESE 1015,4 23 60 0,0
20.07.2019 07:00:00 15,8 14,4 15,4 17,2 20,1 18,4 4 2 6 3 SSE 1015,2 14 54 0,0
20.07.2019 06:00:00 14,2 13,6 12,3 17,1 20,5 18,4 3 1 6 3 S 1015,2 1,7 0 0,0
20.07.2019 05:00:00 14,0 13,2 12,2 17,6 20,8 18,4 4 2 6 3 W 1015,2 0,7 0 0,0
20.07.2019 04:00:00 15,4 14,6 13,2 18,4 21,2 18,4 4 2 9 5 WNW 1015,0 5 0 0,0
20.07.2019 03:00:00 16,4 14,8 14,5 19,4 21,4 18,4 5 3 9 5 WNW 1014,9 14 0 0,0
20.07.2019 02:00:00 17,1 14,8 16,6 19,9 21,7 18,4 4 2 9 5 W 1014,9 18 0 0,0
20.07.2019 01:00:00 17,8 15,3 17,2 20,4 22,0 18,3 0 0 9 5 N 1014,6 16 0 0,0
20.07.2019 00:00:00 18,2 15,1 17,7 20,6 22,3 18,3 7 4 10 6 S 1014,3 19 0 0,0
19.07.2019 23:00:00 17,5 15,0 15,8 21,2 22,7 18,3 5 3 8 5 WSW 1014,5 21 0 0,0
19.07.2019 22:00:00 19,0 14,6 18,1 22,2 23,1 18,3 2 1 8 5 WNW 1014,1 23 0 0,0
19.07.2019 21:00:00 19,8 14,6 19,0 23,3 23,3 18,3 6 3 13 7 SSW 1013,6 28 2 0,0
19.07.2019 20:00:00 21,3 14,2 21,8 24,8 23,5 18,3 9 5 19 11 SSW 1013,2 30 13 0,0
19.07.2019 19:00:00 22,0 13,6 22,4 25,9 23,5 18,3 9 5 21 12 SW 1013,1 30 19 0,0
19.07.2019 18:00:00 23,1 12,0 25,9 26,6 23,4 18,3 14 8 34 18 W 1013,2 56 23 0,0
19.07.2019 17:00:00 22,2 11,3 23,4 26,2 23,3 18,3 24 13 41 22 W 1013,1 44 0 0,0
19.07.2019 16:00:00 24,3 12,7 26,0 28,1 23,0 18,3 12 6 22 12 SW 1012,8 38 6 0,0
19.07.2019 15:00:00 24,6 13,5 27,2 27,7 22,6 18,2 16 8 23 13 W 1012,8 31 16 0,0
19.07.2019 14:00:00 24,0 13,0 26,8 26,3 22,2 18,2 14 7 21 12 W 1013,0 39 0 0,0
19.07.2019 13:00:00 23,0 12,5 25,1 25,8 21,9 18,2 15 8 29 16 W 1013,0 40 2 0,0
19.07.2019 12:00:00 23,2 11,5 24,7 26,4 21,4 18,2 18 10 34 18 W 1012,7 33 5 0,0
19.07.2019 11:00:00 25,5 9,8 28,3 26,6 20,7 18,2 22 12 30 16 WNW 1012,4 25 58 0,0
19.07.2019 10:00:00 23,8 10,7 26,8 23,8 20,2 18,2 8 5 16 9 WSW 1011,9 33 59 0,0
19.07.2019 09:00:00 20,7 9,5 23,8 21,0 19,9 18,2 8 4 12 6 SSW 1012,0 29 52 0,0
19.07.2019 08:00:00 18,5 9,3 18,8 19,2 20,0 18,1 4 2 12 6 ESE 1011,7 49 26 0,0
19.07.2019 07:00:00 16,2 10,1 15,3 17,9 20,2 18,1 4 2 9 5 E 1011,7 44 0 0,0
19.07.2019 06:00:00 15,8 9,3 14,3 18,0 20,5 18,1 3 1 9 5 E 1011,6 47 0 0,0
19.07.2019 05:00:00 15,9 9,4 14,0 18,4 20,8 18,1 7 4 13 7 NE 1011,5 49 0 0,0
19.07.2019 04:00:00 16,9 10,0 16,0 19,1 21,1 18,1 6 3 9 5 N 1011,8 48 0 0,0
19.07.2019 03:00:00 17,5 9,3 16,3 19,4 21,4 18,1 5 3 11 6 E 1011,8 57 0 0,0
19.07.2019 02:00:00 17,6 9,3 16,5 19,7 21,7 18,1 8 4 10 6 E 1012,1 54 0 0,0
19.07.2019 01:00:00 17,5 8,6 16,5 19,9 22,2 18,1 9 5 11 6 E 1012,3 46 0 0,0
19.07.2019 00:00:00 17,0 8,7 14,6 20,2 22,7 18,1 6 3 13 7 E 1012,2 41 0 0,0
18.07.2019 23:00:00 17,4 9,0 14,4 21,4 23,3 18,1 9 5 12 7 E 1012,1 50 0 0,0
18.07.2019 22:00:00 18,7 8,9 16,6 23,0 23,9 18,1 9 5 16 9 E 1012,0 27 0 0,0
18.07.2019 21:00:00 21,2 9,2 19,2 25,2 24,3 18,1 11 6 14 8 E 1011,6 33 17 0,0
18.07.2019 20:00:00 24,2 8,4 24,2 27,6 24,5 18,1 8 4 14 8 ESE 1011,4 65 48 0,0
18.07.2019 19:00:00 25,4 7,0 27,8 29,4 24,4 18,1 5 3 16 9 ENE 1011,4 70 60 0,0
18.07.2019 18:00:00 26,0 7,1 30,6 30,8 24,0 18,1 6 3 16 9 NNE 1011,4 53 60 0,0
18.07.2019 17:00:00 25,8 6,5 29,5 31,7 23,5 18,1 6 3 16 9 S 1011,9 40 60 0,0
18.07.2019 16:00:00 25,2 5,9 29,6 31,6 22,8 18,1 6 4 18 10 ESE 1012,3 42 55 0,0
18.07.2019 15:00:00 24,2 6,8 27,2 31,8 21,9 18,1 8 4 19 11 N 1012,6 68 55 0,0
18.07.2019 14:00:00 24,1 7,7 31,5 30,9 20,8 18,1 5 3 18 10 N 1012,8 34 60 0,0
18.07.2019 13:00:00 23,9 8,1 30,5 29,0 19,7 18,1 8 4 17 9 ENE 1013,1 38 60 0,0
18.07.2019 12:00:00 22,5 8,8 27,6 26,4 18,6 18,1 10 6 17 9 ESE 1013,4 37 60 0,0
18.07.2019 11:00:00 22,0 8,7 25,7 23,7 17,8 18,1 10 5 17 9 SSE 1013,6 28 60 0,0
18.07.2019 10:00:00 20,9 10,3 23,6 20,8 17,1 18,1 8 4 14 7 SSE 1013,7 46 60 0,0
18.07.2019 09:00:00 19,1 10,6 21,6 17,9 16,8 18,1 7 4 11 6 ESE 1013,7 26 60 0,0
18.07.2019 08:00:00 16,1 10,5 17,6 15,0 16,8 18,1 5 3 8 4 SE 1013,9 20 60 0,0
18.07.2019 07:00:00 11,8 10,2 10,8 13,1 17,0 18,1 0 0 4 2 N 1013,9 31 60 0,0
18.07.2019 06:00:00 9,7 8,7 8,5 13,1 17,4 18,1 3 2 4 2 NW 1014,0 22 0 0,0
18.07.2019 05:00:00 9,8 8,6 7,8 13,4 17,8 18,1 3 2 5 3 N 1014,0 29 0 0,0
18.07.2019 04:00:00 10,4 9,0 7,8 14,0 18,2 18,1 4 2 5 3 NW 1013,9 35 0 0,0
18.07.2019 03:00:00 10,8 8,8 8,5 14,7 18,6 18,1 2 1 6 3 N 1014,0 59 0 0,0
18.07.2019 02:00:00 11,9 9,1 9,3 15,6 19,0 18,1 5 3 9 5 NNE 1014,2 53 0 0,0
18.07.2019 01:00:00 13,1 9,6 11,0 16,4 19,4 18,2 7 4 9 5 N 1014,1 59 0 0,0
18.07.2019 00:00:00 14,2 9,7 11,6 16,9 19,9 18,2 5 3 10 6 NNW 1014,0 57 0 0,0
17.07.2019 23:00:00 14,7 9,9 12,1 18,0 20,3 18,2 6 3 11 6 NE 1013,8 64 0 0,0
17.07.2019 22:00:00 16,2 11,1 13,7 19,4 20,7 18,2 8 4 16 9 NNE 1013,8 26 0 0,0
17.07.2019 21:00:00 18,7 11,7 17,2 21,1 21,0 18,2 9 5 18 10 ENE 1013,3 58 8 0,0
17.07.2019 20:00:00 21,7 11,0 22,5 22,8 21,1 18,2 8 5 14 8 N 1012,8 70 16 0,0
17.07.2019 19:00:00 22,2 10,0 22,9 24,0 21,0 18,2 9 5 17 9 WNW 1012,8 69 18 0,0
17.07.2019 18:00:00 22,5 9,4 23,7 24,4 20,8 18,3 11 6 21 12 NW 1013,1 69 2 0,0
17.07.2019 17:00:00 22,5 9,7 24,2 24,7 20,6 18,3 5 3 18 10 N 1013,3 70 1 0,0
17.07.2019 16:00:00 22,8 9,6 25,0 25,0 20,2 18,3 9 5 21 12 NW 1013,4 64 2 0,0
17.07.2019 15:00:00 22,4 9,3 25,7 25,5 19,7 18,3 10 5 21 11 NW 1013,4 67 2 0,0
17.07.2019 14:00:00 21,6 9,2 25,1 25,1 19,0 18,3 11 6 26 14 N 1013,7 67 8 0,0
17.07.2019 13:00:00 21,8 9,4 24,1 24,3 18,3 18,3 14 7 24 13 NW 1013,7 54 15 0,0
17.07.2019 12:00:00 21,0 9,3 25,2 23,3 17,5 18,3 9 5 22 12 NW 1013,8 47 36 0,0
17.07.2019 11:00:00 20,1 11,3 25,3 21,5 16,8 18,4 9 5 22 12 W 1014,0 37 55 0,0
17.07.2019 10:00:00 18,2 11,3 21,3 19,2 16,3 18,4 12 6 21 11 W 1013,9 29 58 0,0
17.07.2019 09:00:00 17,3 11,5 19,8 16,8 15,9 18,4 14 7 23 13 WNW 1014,2 17 58 0,0
17.07.2019 08:00:00 15,2 11,5 16,3 14,8 15,8 18,4 16 9 25 13 WNW 1014,2 12 30 0,0
17.07.2019 07:00:00 13,2 11,4 13,2 13,3 15,9 18,4 11 6 19 10 WNW 1014,1 14 1 0,0
17.07.2019 06:00:00 12,0 10,9 10,8 12,7 16,1 18,4 10 6 19 11 WNW 1014,0 11 0 0,0
17.07.2019 05:00:00 12,3 10,8 11,4 12,9 16,3 18,4 16 8 23 12 WNW 1013,9 15 0 0,0
17.07.2019 04:00:00 12,7 10,9 11,6 13,2 16,5 18,4 15 8 21 12 WNW 1013,9 19 0 0,0
17.07.2019 03:00:00 13,2 11,0 12,1 13,5 16,8 18,4 16 9 23 12 W 1013,9 22 0 0,0
17.07.2019 02:00:00 13,4 11,0 12,2 13,8 17,0 18,5 15 8 22 12 W 1013,9 26 0 0,0
17.07.2019 01:00:00 13,1 10,4 10,9 14,0 17,4 18,5 11 6 14 7 W 1013,8 28 0 0,0
17.07.2019 00:00:00 13,8 10,5 10,4 14,6 17,7 18,5 9 5 11 6 W 1013,7 34 0 0,0
16.07.2019 23:00:00 14,9 10,8 11,3 15,4 18,0 18,5 5 3 11 6 W 1013,7 55 0 0,0
16.07.2019 22:00:00 15,5 10,5 12,7 16,4 18,3 18,5 7 4 21 11 NW 1013,5 43 0 0,0
16.07.2019 21:00:00 18,2 10,6 17,0 17,8 18,4 18,5 17 9 32 18 NW 1012,8 53 37 0,0
16.07.2019 20:00:00 19,9 11,2 19,5 19,1 18,3 18,6 21 12 34 18 NW 1012,7 60 34 0,0
16.07.2019 19:00:00 21,9 10,3 22,6 19,4 18,1 18,6 25 14 39 21 WNW 1012,1 50 23 0,0
16.07.2019 18:00:00 21,0 10,4 21,6 19,0 17,9 18,6 15 8 30 16 WNW 1012,2 70 6 0,0
16.07.2019 17:00:00 20,3 10,0 21,1 18,6 17,7 18,6 13 7 31 17 W 1012,6 70 5 0,0
16.07.2019 16:00:00 19,7 10,2 20,2 19,0 17,4 18,6 18 10 31 17 WNW 1013,0 61 6 0,0
16.07.2019 15:00:00 18,8 10,5 21,0 18,6 17,1 18,6 21 11 31 17 W 1013,1 36 7 0,0
16.07.2019 14:00:00 16,9 10,8 18,0 16,4 17,1 18,6 17 9 31 17 W 1013,6 38 0 0,0
16.07.2019 13:00:00 16,1 10,9 16,6 16,4 17,0 18,6 13 7 28 15 WNW 1013,6 41 0 0,0
16.07.2019 12:00:00 15,9 10,8 16,2 16,7 16,9 18,6 14 8 29 15 W 1013,7 43 0 0,0
16.07.2019 11:00:00 16,2 10,9 17,2 16,8 16,7 18,6 14 8 30 16 W 1013,5 40 0 0,0
16.07.2019 10:00:00 15,7 10,9 17,0 16,1 16,6 18,7 22 12 31 17 W 1013,1 28 0 0,0
16.07.2019 09:00:00 14,5 11,0 14,8 15,0 16,6 18,7 18 10 30 16 W 1013,1 28 0 0,0
16.07.2019 08:00:00 14,3 10,7 14,6 14,6 16,6 18,7 16 9 34 18 W 1013,1 33 0 0,0
16.07.2019 07:00:00 14,0 10,4 14,1 14,3 16,7 18,7 20 11 31 17 W 1012,8 33 0 0,0
16.07.2019 06:00:00 13,7 9,8 13,4 14,0 16,8 18,7 16 9 27 14 W 1012,9 36 0 0,0
16.07.2019 05:00:00 14,0 9,2 13,7 14,1 16,9 18,7 14 8 30 16 WSW 1013,0 40 0 0,0
16.07.2019 04:00:00 14,4 8,8 14,0 14,2 17,1 18,7 16 9 23 12 W 1013,3 41 0 0,0
16.07.2019 03:00:00 14,5 8,5 14,1 14,3 17,3 18,7 13 7 26 14 W 1013,7 38 0 0,0
16.07.2019 02:00:00 14,8 8,3 14,4 14,5 17,5 18,7 16 8 23 12 W 1013,9 39 0 0,0
16.07.2019 01:00:00 15,0 8,0 14,4 14,7 17,7 18,7 13 7 23 12 WSW 1014,1 39 0 0,0
16.07.2019 00:00:00 15,1 8,0 14,6 14,9 17,9 18,7 13 7 20 11 W 1014,5 42 0 0,0
15.07.2019 23:00:00 15,2 8,6 14,7 15,2 18,1 18,7 13 7 25 14 W 1014,7 47 0 0,0
15.07.2019 22:00:00 15,4 8,8 15,0 15,6 18,4 18,7 18 10 28 15 W 1014,8 42 0 0,0
15.07.2019 21:00:00 15,9 9,0 15,6 16,2 18,6 18,7 19 10 28 15 W 1014,7 54 0 0,0
15.07.2019 20:00:00 16,3 9,3 16,2 16,8 18,8 18,7 16 9 28 15 WSW 1014,6 50 0 0,0
15.07.2019 19:00:00 17,0 8,8 17,5 17,4 18,9 18,7 12 7 29 16 W 1015,0 39 0 0,0

tt = Température de l'air
td = dewpoint
tt 5cm = Température de l'air 5cm
tt -5cm = Température de l'air -5cm
tt -20cm = Température de l'air -20cm
tt -100cm = Température de l'air -100cm
ff = Vitesse du vent
fx = gusts
dd = Direction du vent
ppp = reduced air pressure
vv = visibility
sd = Ensoleillement
rr = Quantités de précipitations

stations d'obs. à proximité